Location: Peterborough
(44.3000°N, 78.3333°W)
Time: 17:23:20
(UTC-04:00)

ISS - Visible Passes

Search period start: 12 July 2024 00:00
Search period end: 22 July 2024 00:00
Orbit: 410 x 424 km, 51.6° (Epoch: 12 July)

Date Brightness Start Highest point End Pass type
(mag) Time Alt. Az. Time Alt. Az. Time Alt. Az.
12 Jul -1.3 00:03:17 10° WNW 00:06:02 23° N 00:08:46 10° NE visible
12 Jul -1.6 01:40:33 10° NW 01:43:29 28° NNE 01:46:24 10° ENE visible
12 Jul -4.0 03:17:10 10° WNW 03:20:31 80° SSW 03:23:50 10° SE visible
12 Jul -1.8 04:55:40 10° WSW 04:56:46 11° SW 04:57:51 10° SSW visible
12 Jul -3.7 21:37:16 10° WSW 21:40:35 84° NNW 21:43:54 10° ENE visible
12 Jul -1.4 23:14:49 10° WNW 23:17:41 26° NNW 23:20:33 10° NE visible
13 Jul -1.4 00:52:21 10° NW 00:55:09 24° N 00:57:56 10° ENE visible
13 Jul -2.8 02:29:01 10° NW 02:31:24 42° NW 02:31:24 42° NW visible
13 Jul -1.8 22:26:21 10° W 22:29:20 31° NNW 22:32:22 10° NE visible
14 Jul -1.3 00:04:04 10° NW 00:06:46 22° N 00:09:29 10° ENE visible
14 Jul -2.3 01:40:52 10° NW 01:43:19 37° NNW 01:43:19 37° NNW visible
14 Jul -2.3 21:37:51 10° W 21:41:01 40° NNW 21:44:11 10° NE visible
14 Jul -1.2 23:15:41 10° NW 23:18:22 22° N 23:21:03 10° NE visible
15 Jul -2.2 00:52:42 10° NW 00:55:46 33° NNE 00:55:56 33° NNE visible
15 Jul -1.3 22:27:12 10° WNW 22:29:57 23° N 22:32:42 10° NE visible
16 Jul -1.7 00:04:29 10° NW 00:07:24 27° NNE 00:08:49 20° NE visible
16 Jul -1.1 01:41:06 10° WNW 01:41:40 14° WNW 01:41:40 14° WNW visible
16 Jul -1.5 21:38:39 10° WNW 21:41:31 26° NNW 21:44:24 10° NE visible
16 Jul -1.5 23:16:12 10° NW 23:18:59 24° N 23:21:45 10° ENE visible
17 Jul -2.0 00:52:52 10° NW 00:54:40 29° NW 00:54:40 29° NW visible
17 Jul -1.4 22:27:49 10° NW 22:30:30 22° N 22:33:12 10° ENE visible
18 Jul -2.7 00:04:37 10° NW 00:07:44 43° NNE 00:07:44 43° NNE visible
18 Jul -1.4 21:39:19 10° WNW 21:42:00 22° N 21:44:41 10° NE visible
18 Jul -2.2 23:16:22 10° NW 23:19:25 33° NNE 23:20:49 23° ENE visible
19 Jul -1.1 00:53:02 10° WNW 00:53:42 15° WNW 00:53:42 15° WNW visible
19 Jul -1.9 22:28:03 10° NW 22:30:56 27° NNE 22:33:50 10° ENE visible
20 Jul -2.5 00:04:40 10° WNW 00:06:50 38° WNW 00:06:50 38° WNW visible
20 Jul -1.6 21:39:39 10° NW 21:42:26 24° N 21:45:11 10° ENE visible
20 Jul -3.5 23:16:20 10° NW 23:19:38 60° NNE 23:19:59 55° ENE visible
21 Jul -2.8 22:28:00 10° NW 22:31:11 41° NNE 22:33:09 19° E visible
